| time (UTC) | temp F | wind direction | speed knots | gust knots | rain 1hr in | rain 24hr in | rain mn in | humidity % | barometer mb |
| 20260504050516 | 62 | 109 | 2.6 | 0.0 | 0.00 | 0.00 | 0.00 | 47 | 1016.1 |
| 20260504050004 | 62 | 105 | 2.6 | 0.0 | 0.00 | 0.00 | 0.00 | 47 | 1016.1 |
| 20260504045549 | 62 | 98 | 1.7 | 0.0 | 0.00 | 0.00 | 0.00 | 47 | 1016.2 |
| 20260504045039 | 62 | 107 | 1.7 | 0.0 | 0.00 | 0.00 | 0.00 | 47 | 1016.2 |
| 20260504044528 | 62 | 112 | 1.7 | 0.0 | 0.00 | 0.00 | 0.00 | 47 | 1016.3 |
| 20260504044010 | 62 | 119 | 1.7 | 0.0 | 0.00 | 0.00 | 0.00 | 47 | 1016.4 |
| 20260504043555 | 62 | 110 | 2.6 | 0.0 | 0.00 | 0.00 | 0.00 | 47 | 1016.4 |
| 20260504043049 | 62 | 119 | 2.6 | 0.0 | 0.00 | 0.00 | 0.00 | 47 | 1016.4 |
| 20260504042529 | 62 | 161 | 1.7 | 0.0 | 0.00 | 0.00 | 0.00 | 46 | 1016.4 |
| 20260504042011 | 62 | 165 | 1.7 | 0.0 | 0.00 | 0.00 | 0.00 | 46 | 1016.4 |
| 20260504041608 | 63 | 113 | 0.9 | 0.0 | 0.00 | 0.00 | 0.00 | 45 | 1016.4 |
| 20260504041049 | 63 | 171 | 0.9 | 0.0 | 0.00 | 0.00 | 0.00 | 45 | 1016.3 |
| 20260504040534 | 63 | 110 | 1.7 | 0.0 | 0.00 | 0.00 | 0.00 | 45 | 1016.2 |
| 20260504040018 | 63 | 107 | 2.6 | 0.0 | 0.00 | 0.00 | 0.00 | 45 | 1016.3 |
| 20260504035505 | 63 | 137 | 2.6 | 0.0 | 0.00 | 0.00 | 0.00 | 45 | 1016.1 |
| 20260504035051 | 62 | 106 | 3.5 | 0.0 | 0.00 | 0.00 | 0.00 | 45 | 1016.0 |
| 20260504034541 | 62 | 106 | 3.5 | 0.0 | 0.00 | 0.00 | 0.00 | 45 | 1016.1 |
| 20260504034025 | 62 | 101 | 3.5 | 0.0 | 0.00 | 0.00 | 0.00 | 45 | 1016.2 |
| 20260504033509 | 62 | 99 | 3.5 | 0.0 | 0.00 | 0.00 | 0.00 | 45 | 1016.1 |
| 20260504033058 | 62 | 113 | 2.6 | 0.0 | 0.00 | 0.00 | 0.00 | 45 | 1016.1 |
| 20260504032543 | 62 | 96 | 2.6 | 0.0 | 0.00 | 0.00 | 0.00 | 45 | 1016.1 |
| 20260504032030 | 62 | 113 | 1.7 | 0.0 | 0.00 | 0.00 | 0.00 | 44 | 1016.2 |
| 20260504031523 | 62 | 102 | 0.9 | 0.0 | 0.00 | 0.00 | 0.00 | 44 | 1016.2 |
| 20260504031003 | 62 | 113 | 2.6 | 0.0 | 0.00 | 0.00 | 0.00 | 45 | 1016.2 |
| 20260504030552 | 62 | 90 | 2.6 | 0.0 | 0.00 | 0.00 | 0.00 | 45 | 1016.3 |
| 20260504030036 | 62 | 103 | 2.6 | 0.0 | 0.00 | 0.00 | 0.00 | 45 | 1016.3 |
| 20260504025518 | 62 | 96 | 3.5 | 0.0 | 0.00 | 0.00 | 0.00 | 45 | 1016.3 |
| 20260504025104 | 62 | 106 | 3.5 | 0.0 | 0.00 | 0.00 | 0.00 | 45 | 1016.3 |
| 20260504024544 | 63 | 109 | 2.6 | 0.0 | 0.00 | 0.00 | 0.00 | 45 | 1016.2 |
| 20260504024017 | 63 | 107 | 2.6 | 0.0 | 0.00 | 0.00 | 0.00 | 45 | 1016.2 |
| 20260504023506 | 63 | 113 | 3.5 | 0.0 | 0.00 | 0.00 | 0.00 | 45 | 1016.2 |
| 20260504023053 | 63 | 93 | 3.5 | 0.0 | 0.00 | 0.00 | 0.00 | 45 | 1016.1 |
| 20260504022534 | 64 | 102 | 2.6 | 0.0 | 0.00 | 0.00 | 0.00 | 45 | 1016.1 |
| 20260504022015 | 64 | 137 | 2.6 | 0.0 | 0.00 | 0.00 | 0.00 | 44 | 1016.0 |
| 20260504021601 | 64 | 98 | 3.5 | 0.0 | 0.00 | 0.00 | 0.00 | 44 | 1015.8 |
| 20260504021045 | 65 | 127 | 1.7 | 0.0 | 0.00 | 0.00 | 0.00 | 43 | 1015.8 |
| 20260504020536 | 65 | 111 | 1.7 | 0.0 | 0.00 | 0.00 | 0.00 | 42 | 1015.9 |
| 20260504020018 | 66 | 178 | 1.7 | 0.0 | 0.00 | 0.00 | 0.00 | 41 | 1015.7 |
| 20260504015502 | 66 | 122 | 1.7 | 0.0 | 0.00 | 0.00 | 0.00 | 41 | 1015.7 |
| 20260504015054 | 67 | 141 | 1.7 | 0.0 | 0.00 | 0.00 | 0.00 | 41 | 1015.8 |
| 20260504014538 | 68 | 125 | 2.6 | 0.0 | 0.00 | 0.00 | 0.00 | 40 | 1015.6 |
| 20260504014023 | 68 | 128 | 1.7 | 0.0 | 0.00 | 0.00 | 0.00 | 38 | 1015.6 |
| 20260504013511 | 69 | 128 | 1.7 | 0.0 | 0.00 | 0.00 | 0.00 | 34 | 1015.5 |
| 20260504013101 | 70 | 181 | 1.7 | 0.0 | 0.00 | 0.00 | 0.00 | 30 | 1015.2 |
| 20260504012550 | 71 | 184 | 1.7 | 0.0 | 0.00 | 0.00 | 0.00 | 30 | 1015.2 |
| 20260504012028 | 71 | 182 | 0.9 | 0.0 | 0.00 | 0.00 | 0.00 | 29 | 1015.2 |
| 20260504011507 | 71 | 186 | 0.9 | 0.0 | 0.00 | 0.00 | 0.00 | 29 | 1015.1 |
| 20260504011052 | 72 | 165 | 1.7 | 0.0 | 0.00 | 0.00 | 0.00 | 28 | 1015.0 |
| 20260504010537 | 72 | 142 | 0.9 | 0.0 | 0.00 | 0.00 | 0.00 | 28 | 1015.1 |
| 20260504010025 | 72 | 202 | 0.9 | 0.0 | 0.00 | 0.00 | 0.00 | 28 | 1015.2 |
| 20260504005510 | 72 | 135 | 0.0 | 0.0 | 0.00 | 0.00 | 0.00 | 28 | 1015.2 |
| 20260504005059 | 72 | 128 | 0.0 | 0.0 | 0.00 | 0.00 | 0.00 | 28 | 1015.3 |
| 20260504004547 | 72 | 128 | 0.9 | 0.0 | 0.00 | 0.00 | 0.00 | 28 | 1015.3 |
| 20260504004023 | 72 | 121 | 0.9 | 0.0 | 0.00 | 0.00 | 0.00 | 28 | 1015.2 |
| 20260504003508 | 72 | 166 | 0.9 | 0.0 | 0.00 | 0.00 | 0.00 | 28 | 1015.4 |
| 20260504003059 | 73 | 155 | 0.9 | 0.0 | 0.00 | 0.00 | 0.00 | 27 | 1015.4 |
| 20260504002544 | 73 | 144 | 1.7 | 0.0 | 0.00 | 0.00 | 0.00 | 27 | 1015.5 |
| 20260504002030 | 73 | 96 | 1.7 | 0.0 | 0.00 | 0.00 | 0.00 | 26 | 1015.5 |
| 20260504001517 | 73 | 103 | 1.7 | 0.0 | 0.00 | 0.00 | 0.00 | 26 | 1015.5 |
| 20260504001002 | 73 | 104 | 1.7 | 0.0 | 0.00 | 0.00 | 0.00 | 25 | 1015.7 |
| 20260504000548 | 74 | 107 | 1.7 | 0.0 | 0.00 | 0.00 | 0.00 | 26 | 1015.7 |
| 20260504000052 | 74 | 101 | 0.9 | 0.0 | 0.00 | 0.00 | 0.00 | 25 | 1015.7 |
| 20260503235517 | 74 | 105 | 0.9 | 0.0 | 0.00 | 0.00 | 0.00 | 24 | 1015.8 |
| 20260503235002 | 74 | 104 | 1.7 | 0.0 | 0.00 | 0.00 | 0.00 | 25 | 1015.8 |
| 20260503234556 | 74 | 103 | 1.7 | 0.0 | 0.00 | 0.00 | 0.00 | 24 | 1015.8 |
| 20260503234036 | 75 | 215 | 0.9 | 0.0 | 0.00 | 0.00 | 0.00 | 24 | 1016.0 |
| 20260503233520 | 75 | 155 | 0.0 | 0.0 | 0.00 | 0.00 | 0.00 | 23 | 1016.0 |
| 20260503233006 | 75 | 119 | 0.0 | 0.0 | 0.00 | 0.00 | 0.00 | 23 | 1016.1 |
| 20260503232544 | 75 | 119 | 0.0 | 0.0 | 0.00 | 0.00 | 0.00 | 22 | 1016.3 |
| 20260503232025 | 75 | 218 | 0.0 | 0.0 | 0.00 | 0.00 | 0.00 | 23 | 1016.4 |
| 20260503231503 | 75 | 221 | 0.0 | 0.0 | 0.00 | 0.00 | 0.00 | 22 | 1016.6 |
| 20260503231047 | 75 | 221 | 0.0 | 0.0 | 0.00 | 0.00 | 0.00 | 23 | 1016.6 |
| 20260503230528 | 75 | 220 | 0.0 | 0.0 | 0.00 | 0.00 | 0.00 | 22 | 1016.7 |
| 20260503230007 | 75 | 219 | 0.0 | 0.0 | 0.00 | 0.00 | 0.00 | 23 | 1016.9 |
| 20260503225548 | 74 | 219 | 0.0 | 0.0 | 0.00 | 0.00 | 0.00 | 23 | 1016.9 |
| 20260503225030 | 74 | 219 | 0.9 | 0.0 | 0.00 | 0.00 | 0.00 | 23 | 1016.9 |
| 20260503224514 | 74 | 219 | 0.0 | 0.0 | 0.00 | 0.00 | 0.00 | 24 | 1017.1 |
| 20260503223553 | 74 | 236 | 1.7 | 0.0 | 0.00 | 0.00 | 0.00 | 24 | 1017.3 |
| 20260503223055 | 74 | 215 | 0.9 | 0.0 | 0.00 | 0.00 | 0.00 | 24 | 1017.4 |
| 20260503222557 | 74 | 187 | 0.0 | 0.0 | 0.00 | 0.00 | 0.00 | 24 | 1017.5 |
| 20260503222500 | 74 | 159 | 0.0 | 0.0 | 0.00 | 0.00 | 0.00 | 24 | 1017.6 |
| 20260503222058 | 73 | 42 | 0.9 | 0.0 | 0.00 | 0.00 | 0.00 | 24 | 1017.8 |
| 20260503222006 | 73 | 36 | 0.9 | 0.0 | 0.00 | 0.00 | 0.00 | 24 | 1017.7 |
| 20260503221511 | 74 | 103 | 0.9 | 0.0 | 0.00 | 0.00 | 0.00 | 24 | 1017.9 |
| 20260503221017 | 73 | 163 | 0.9 | 0.0 | 0.00 | 0.00 | 0.00 | 25 | 1018.0 |
| 20260503220522 | 73 | 220 | 0.0 | 0.0 | 0.00 | 0.00 | 0.00 | 25 | 1018.1 |
| 20260503220021 | 72 | 259 | 0.9 | 0.0 | 0.00 | 0.00 | 0.00 | 26 | 1018.2 |
| 20260503215522 | 72 | 259 | 2.6 | 0.0 | 0.00 | 0.00 | 0.00 | 26 | 1018.2 |
| 20260503215029 | 72 | 261 | 3.5 | 0.0 | 0.00 | 0.00 | 0.00 | 25 | 1018.4 |
| 20260503214536 | 72 | 216 | 2.6 | 0.0 | 0.00 | 0.00 | 0.00 | 25 | 1018.5 |
| 20260503214045 | 72 | 216 | 0.9 | 0.0 | 0.00 | 0.00 | 0.00 | 25 | 1018.6 |
| 20260503213541 | 72 | 183 | 0.9 | 0.0 | 0.00 | 0.00 | 0.00 | 24 | 1018.6 |
| 20260503213044 | 71 | 183 | 3.5 | 0.0 | 0.00 | 0.00 | 0.00 | 24 | 1018.7 |
| 20260503212546 | 71 | 217 | 3.5 | 0.0 | 0.00 | 0.00 | 0.00 | 25 | 1018.7 |
| 20260503212049 | 71 | 149 | 2.6 | 0.0 | 0.00 | 0.00 | 0.00 | 25 | 1018.8 |
| 20260503211602 | 71 | 209 | 1.7 | 0.0 | 0.00 | 0.00 | 0.00 | 25 | 1018.9 |
| 20260503211055 | 72 | 232 | 2.6 | 0.0 | 0.00 | 0.00 | 0.00 | 26 | 1019.0 |
| 20260503210558 | 72 | 205 | 2.6 | 0.0 | 0.00 | 0.00 | 0.00 | 23 | 1019.1 |
| 20260503210502 | 72 | 190 | 2.6 | 0.0 | 0.00 | 0.00 | 0.00 | 23 | 1019.2 |
| 20260503210007 | 72 | 178 | 2.6 | 0.0 | 0.00 | 0.00 | 0.00 | 24 | 1019.3 |
| 20260503205513 | 72 | 192 | 0.9 | 0.0 | 0.00 | 0.00 | 0.00 | 25 | 1019.3 |
| 20260503205013 | 72 | 155 | 0.9 | 0.0 | 0.00 | 0.00 | 0.00 | 26 | 1019.5 |
| 20260503204517 | 72 | 168 | 0.9 | 0.0 | 0.00 | 0.00 | 0.00 | 26 | 1019.6 |
| 20260503204022 | 71 | 176 | 0.9 | 0.0 | 0.00 | 0.00 | 0.00 | 27 | 1019.8 |
| 20260503203524 | 71 | 176 | 1.7 | 0.0 | 0.00 | 0.00 | 0.00 | 26 | 1020.0 |
| 20260503203040 | 71 | 165 | 2.6 | 0.0 | 0.00 | 0.00 | 0.00 | 27 | 1020.0 |
| 20260503202536 | 71 | 200 | 1.7 | 0.0 | 0.00 | 0.00 | 0.00 | 27 | 1020.1 |
| 20260503202037 | 71 | 176 | 1.7 | 0.0 | 0.00 | 0.00 | 0.00 | 29 | 1020.1 |
| 20260503201543 | 71 | 124 | 1.7 | 0.0 | 0.00 | 0.00 | 0.00 | 31 | 1020.3 |
| 20260503201044 | 70 | 109 | 1.7 | 0.0 | 0.00 | 0.00 | 0.00 | 31 | 1020.6 |
| 20260503200546 | 70 | 100 | 1.7 | 0.0 | 0.00 | 0.00 | 0.00 | 31 | 1020.6 |
| 20260503200046 | 69 | 77 | 2.6 | 0.0 | 0.00 | 0.00 | 0.00 | 32 | 1020.7 |
| 20260503195552 | 69 | 198 | 1.7 | 0.0 | 0.00 | 0.00 | 0.00 | 33 | 1020.8 |
| 20260503195052 | 68 | 225 | 1.7 | 0.0 | 0.00 | 0.00 | 0.00 | 34 | 1020.8 |
| 20260503194559 | 68 | 178 | 1.7 | 0.0 | 0.00 | 0.00 | 0.00 | 35 | 1021.0 |
| 20260503194100 | 67 | 172 | 1.7 | 0.0 | 0.00 | 0.00 | 0.00 | 36 | 1021.1 |
| 20260503194009 | 67 | 164 | 1.7 | 0.0 | 0.00 | 0.00 | 0.00 | 36 | 1021.1 |
| 20260503193513 | 67 | 194 | 2.6 | 0.0 | 0.00 | 0.00 | 0.00 | 36 | 1021.2 |
| 20260503193012 | 66 | 178 | 3.5 | 0.0 | 0.00 | 0.00 | 0.00 | 36 | 1021.2 |
| 20260503192518 | 66 | 213 | 2.6 | 0.0 | 0.00 | 0.00 | 0.00 | 36 | 1021.5 |
| 20260503192016 | 66 | 212 | 1.7 | 0.0 | 0.00 | 0.00 | 0.00 | 36 | 1021.6 |
| 20260503191525 | 66 | 168 | 1.7 | 0.0 | 0.00 | 0.00 | 0.00 | 36 | 1021.8 |
| 20260503191029 | 65 | 140 | 1.7 | 0.0 | 0.00 | 0.00 | 0.00 | 36 | 1021.7 |
| 20260503190536 | 65 | 117 | 1.7 | 0.0 | 0.00 | 0.00 | 0.00 | 37 | 1021.8 |
| 20260503190043 | 65 | 130 | 1.7 | 0.0 | 0.00 | 0.00 | 0.00 | 38 | 1021.9 |
| 20260503185540 | 64 | 159 | 0.9 | 0.0 | 0.00 | 0.00 | 0.00 | 38 | 1021.9 |
| 20260503185042 | 64 | 126 | 1.7 | 0.0 | 0.00 | 0.00 | 0.00 | 40 | 1022.0 |
| 20260503184546 | 64 | 191 | 1.7 | 0.0 | 0.00 | 0.00 | 0.00 | 40 | 1022.2 |
| 20260503184057 | 64 | 171 | 2.6 | 0.0 | 0.00 | 0.00 | 0.00 | 40 | 1022.3 |
| 20260503183602 | 64 | 128 | 2.6 | 0.0 | 0.00 | 0.00 | 0.00 | 40 | 1022.2 |
| 20260503183503 | 64 | 128 | 2.6 | 0.0 | 0.00 | 0.00 | 0.00 | 40 | 1022.4 |
| 20260503183009 | 64 | 92 | 2.6 | 0.0 | 0.00 | 0.00 | 0.00 | 41 | 1022.5 |
| 20260503182516 | 64 | 182 | 1.7 | 0.0 | 0.00 | 0.00 | 0.00 | 41 | 1022.4 |
| 20260503182019 | 64 | 198 | 2.6 | 0.0 | 0.00 | 0.00 | 0.00 | 42 | 1022.6 |
| 20260503181527 | 64 | 197 | 2.6 | 0.0 | 0.00 | 0.00 | 0.00 | 41 | 1022.6 |
| 20260503181026 | 64 | 200 | 0.9 | 0.0 | 0.00 | 0.00 | 0.00 | 42 | 1022.8 |
| 20260503180530 | 64 | 192 | 0.9 | 0.0 | 0.00 | 0.00 | 0.00 | 43 | 1023.0 |
| 20260503180037 | 64 | 164 | 1.7 | 0.0 | 0.00 | 0.00 | 0.00 | 42 | 1023.2 |
| 20260503175537 | 64 | 204 | 2.6 | 0.0 | 0.00 | 0.00 | 0.00 | 42 | 1023.3 |
| 20260503175046 | 64 | 182 | 2.6 | 0.0 | 0.00 | 0.00 | 0.00 | 41 | 1023.3 |
| 20260503174553 | 64 | 187 | 2.6 | 0.0 | 0.00 | 0.00 | 0.00 | 42 | 1023.4 |
| 20260503174054 | 64 | 137 | 1.7 | 0.0 | 0.00 | 0.00 | 0.00 | 42 | 1023.4 |
| 20260503174004 | 64 | 111 | 1.7 | 0.0 | 0.00 | 0.00 | 0.00 | 41 | 1023.4 |
| 20260503173504 | 64 | 116 | 1.7 | 0.0 | 0.00 | 0.00 | 0.00 | 42 | 1023.4 |
| 20260503173016 | 63 | 185 | 0.9 | 0.0 | 0.00 | 0.00 | 0.00 | 44 | 1023.6 |
| 20260503172507 | 63 | 185 | 0.9 | 0.0 | 0.00 | 0.00 | 0.00 | 44 | 1023.6 |
| 20260503172015 | 62 | 180 | 0.0 | 0.0 | 0.00 | 0.00 | 0.00 | 44 | 1023.8 |
| 20260503171525 | 62 | 165 | 0.0 | 0.0 | 0.00 | 0.00 | 0.00 | 45 | 1023.8 |
| 20260503171021 | 62 | 177 | 0.0 | 0.0 | 0.00 | 0.00 | 0.00 | 45 | 1023.8 |
| 20260503170522 | 61 | 146 | 0.9 | 0.0 | 0.00 | 0.00 | 0.00 | 46 | 1023.9 |
| 20260503150556 | 55 | 232 | 0.0 | 0.0 | 0.00 | 0.00 | 0.00 | 56 | 1024.8 |
| 20260503131023 | 43 | 106 | 0.0 | 0.0 | 0.00 | 0.00 | 0.00 | 76 | 1024.6 |
| 20260503130526 | 43 | 106 | 0.0 | 0.0 | 0.00 | 0.00 | 0.00 | 76 | 1024.6 |
| 20260503110512 | 44 | 106 | 0.0 | 0.0 | 0.00 | 0.00 | 0.00 | 73 | 1025.0 |
| 20260503081550 | 47 | 106 | 0.0 | 0.0 | 0.00 | 0.00 | 0.00 | 67 | 1025.2 |
| 20260503081100 | 48 | 106 | 0.0 | 0.0 | 0.00 | 0.00 | 0.00 | 66 | 1025.2 |
| 20260503081001 | 48 | 106 | 0.0 | 0.0 | 0.00 | 0.00 | 0.00 | 66 | 1025.2 |
| 20260503080506 | 48 | 106 | 0.0 | 0.0 | 0.00 | 0.00 | 0.00 | 65 | 1025.1 |
| 20260503072530 | 49 | 106 | 0.0 | 0.0 | 0.00 | 0.00 | 0.00 | 61 | 1025.4 |
| 20260503072035 | 50 | 106 | 0.0 | 0.0 | 0.00 | 0.00 | 0.00 | 61 | 1025.3 |
| 20260503071544 | 50 | 106 | 0.0 | 0.0 | 0.00 | 0.00 | 0.00 | 60 | 1025.4 |
| 20260503071040 | 50 | 106 | 0.0 | 0.0 | 0.00 | 0.00 | 0.00 | 60 | 1025.5 |
| 20260503070544 | 50 | 106 | 0.0 | 0.0 | 0.00 | 0.00 | 0.00 | 59 | 1025.4 |
| 20260503055043 | 52 | 107 | 0.9 | 0.0 | 0.00 | 0.00 | 0.02 | 56 | 1025.5 |
| 20260503054541 | 52 | 111 | 0.9 | 0.0 | 0.00 | 0.00 | 0.02 | 56 | 1025.4 |
| 20260503054047 | 52 | 112 | 0.0 | 0.0 | 0.00 | 0.00 | 0.02 | 56 | 1025.3 |
| 20260503053557 | 52 | 107 | 0.9 | 0.0 | 0.00 | 0.00 | 0.02 | 56 | 1025.4 |
| 20260503053502 | 52 | 108 | 0.9 | 0.0 | 0.00 | 0.00 | 0.02 | 56 | 1025.4 |
| 20260503053058 | 52 | 108 | 0.9 | 0.0 | 0.00 | 0.00 | 0.02 | 55 | 1025.4 |
| 20260503053004 | 52 | 108 | 0.0 | 0.0 | 0.00 | 0.00 | 0.02 | 55 | 1025.4 |
| 20260503052506 | 52 | 108 | 0.0 | 0.0 | 0.00 | 0.00 | 0.02 | 55 | 1025.3 |